H1 CPF 2 NER 2024 6 13 9 165 01 glonass107 H2 0706501 9107 32393 2024 6 13 0 0 0 2024 6 16 23 45 0 900 1 1 0 0 0 1 H9 10 0 60474 0.00000 0 -12071290.264 -3063025.661 -22269378.658 10 0 60474 900.00000 0 -10155813.989 -5079487.294 -22849279.983 10 0 60474 1800.00000 0 -8362745.100 -7262854.232 -22985831.041 10 0 60474 2700.00000 0 -6737721.483 -9561012.041 -22676386.113 10 0 60474 3600.00000 0 -5316518.277 -11914754.335 -21926939.917 10 0 60474 4500.00000 0 -4123726.740 -14260057.705 -20752012.798 10 0 60474 5400.00000 0 -3171914.679 -16530572.058 -19174372.436 10 0 60474 6300.00000 0 -2461302.576 -18660223.727 -17224596.972 10 0 60474 7200.00000 0 -1979968.105 -20585823.848 -14940487.452 10 0 60474 8100.00000 0 -1704569.741 -22249573.935 -12366340.217 10 0 60474 9000.00000 0 -1601558.522 -23601364.561 -9552092.647 10 0 60474 9900.00000 0 -1628826.493 -24600771.267 -6552358.211 10 0 60474 10800.00000 0 -1737721.955 -25218664.218 -3425369.098 10 0 60474 11700.00000 0 -1875346.058 -25438363.994 -231846.716 10 0 60474 12600.00000 0 -1987033.208 -25256294.756 2966177.971 10 0 60474 13500.00000 0 -2018909.830 -24682107.083 6106571.134 10 0 60474 14400.00000 0 -1920422.532 -23738264.994 9128305.989 10 0 60474 15300.00000 0 -1646727.875 -22459114.280 11972651.900 10 0 60474 16200.00000 0 -1160841.701 -20889471.125 14584319.071 10 0 60474 17100.00000 0 -435456.110 -19082790.169 16912536.208 10 0 60474 18000.00000 0 545653.792 -17098988.910 18912039.818 10 0 60474 18900.00000 0 1786693.910 -15002019.634 20543955.813 10 0 60474 19800.00000 0 3279426.635 -12857290.563 21776556.258 10 0 60474 20700.00000 0 5003276.866 -10729044.082 22585876.652 10 0 60474 21600.00000 0 6925965.394 -8677801.472 22956181.933 10 0 60474 22500.00000 0 9004644.304 -6757980.581 22880272.355 10 0 60474 23400.00000 0 11187487.947 -5015785.496 22359623.428 10 0 60474 24300.00000 0 13415673.950 -3487455.695 21404357.304 10 0 60474 25200.00000 0 15625672.313 -2197947.016 20033046.107 10 0 60474 26100.00000 0 17751747.607 -1160098.682 18272350.942 10 0 60474 27000.00000 0 19728570.234 -374320.147 16156503.391 10 0 60474 27900.00000 0 21493827.946 171190.273 13726639.372 10 0 60474 28800.00000 0 22990728.578 499705.370 11029998.167 10 0 60474 29700.00000 0 24170289.360 644739.991 8119002.106 10 0 60474 30600.00000 0 24993316.958 648385.967 5050234.871 10 0 60474 31500.00000 0 25431995.273 559282.434 1883338.515 10 0 60474 32400.00000 0 25471014.486 430308.423 -1320148.985 10 0 60474 33300.00000 0 25108194.163 316096.256 -4497992.625 10 0 60474 34200.00000 0 24354574.510 270471.858 -7588471.866 10 0 60474 35100.00000 0 23233972.317 343931.047 -10531580.751 10 0 60474 36000.00000 0 21782020.656 581259.202 -13270193.012 10 0 60474 36900.00000 0 20044733.001 1019395.465 -15751169.356 10 0 60474 37800.00000 0 18076652.272 1685632.155 -17926385.539 10 0 60474 38700.00000 0 15938662.500 2596225.747 -19753661.595 10 0 60474 39600.00000 0 13695554.577 3755478.413 -21197574.691 10 0 60474 40500.00000 0 11413447.547 5155329.271 -22230140.531 10 0 60474 41400.00000 0 9157172.462 6775473.196 -22831350.830 10 0 60474 42300.00000 0 6987727.139 8584003.051 -22989557.122 10 0 60474 43200.00000 0 4959906.884 10538549.462 -22701694.043 10 0 60474 44100.00000 0 3120208.707 12587871.646 -21973338.095 10 0 60474 45000.00000 0 1505095.186 14673834.047 -20818600.866 10 0 60474 45900.00000 0 139689.105 16733687.501 -19259858.568 10 0 60474 46800.00000 0 -963047.825 18702560.884 -17327322.732 10 0 60474 47700.00000 0 -1802618.892 20516060.179 -15058459.721 10 0 60474 48600.00000 0 -2390767.148 22112867.193 -12497269.640 10 0 60474 49500.00000 0 -2750731.281 23437229.780 -9693437.858 10 0 60474 50400.00000 0 -2916014.483 24441239.578 -6701375.008 10 0 60474 51300.00000 0 -2928718.743 25086801.793 -3579163.621 10 0 60474 52200.00000 0 -2837515.326 25347214.198 -387431.600 10 0 60474 53100.00000 0 -2695337.662 25208288.593 2811825.569 10 0 60474 54000.00000 0 -2556894.763 24668967.144 5956450.780 10 0 60474 54900.00000 0 -2476110.994 23741407.111 8985335.628 10 0 60474 55800.00000 0 -2503601.279 22450529.905 11839611.084 10 0 60474 56700.00000 0 -2684289.381 20833052.939 14463794.888 10 0 60474 57600.00000 0 -3055270.908 18936044.537 16806872.951 10 0 60474 58500.00000 0 -3644012.298 16815062.239 18823293.393 10 0 60474 59400.00000 0 -4466962.858 14531952.260 20473853.762 10 0 60474 60300.00000 0 -5528639.436 12152402.003 21726464.170 10 0 60474 61200.00000 0 -6821223.340 9743347.747 22556771.600 10 0 60474 62100.00000 0 -8324687.546 7370345.485 22948633.438 10 0 60474 63000.00000 0 -10007449.925 5095014.252 22894431.243 10 0 60474 63900.00000 0 -11827526.098 2972658.107 22395218.796 10 0 60474 64800.00000 0 -13734134.526 1050165.295 21460701.637 10 0 60474 65700.00000 0 -15669687.467 -635728.600 20109048.493 10 0 60474 66600.00000 0 -17572085.085 -2059741.921 18366538.114 10 0 60474 67500.00000 0 -19377217.184 -3208859.364 16267048.232 10 0 60474 68400.00000 0 -21021568.143 -4082622.762 13851396.341 10 0 60474 69300.00000 0 -22444816.091 -4692889.346 11166544.977 10 0 60474 70200.00000 0 -23592317.352 -5063068.956 8264686.852 10 0 60474 71100.00000 0 -24417371.922 -5226873.680 5202227.680 10 0 60474 72000.00000 0 -24883174.712 -5226633.910 2038686.709 10 0 60474 72900.00000 0 -24964370.485 -5111253.141 -1164463.329 10 0 60474 73800.00000 0 -24648147.117 -4933889.086 -4344993.863 10 0 60474 74700.00000 0 -23934821.173 -4749460.164 -7441131.890 10 0 60474 75600.00000 0 -22837891.323 -4612083.704 -10392761.193 10 0 60474 76500.00000 0 -21383557.452 -4572554.916 -13142589.669 10 0 60474 77400.00000 0 -19609725.803 -4675973.760 -15637259.916 10 0 60474 78300.00000 0 -17564541.980 -4959620.381 -17828381.607 10 0 60474 79200.00000 0 -15304513.221 -5451169.069 -19673465.920 10 0 60474 80100.00000 0 -12892298.312 -6167316.321 -21136744.400 10 0 60474 81000.00000 0 -10394257.088 -7112881.038 -22189857.049 10 0 60474 81900.00000 0 -7877861.077 -8280415.113 -22812397.052 10 0 60474 82800.00000 0 -5409072.384 -9650341.267 -22992302.272 10 0 60474 83700.00000 0 -3049798.887 -11191613.116 -22726086.495 10 0 60474 84600.00000 0 -855530.435 -12862870.707 -22018906.314 10 0 60474 85500.00000 0 1126746.808 -14614044.191 -20884462.443 10 0 60475 0.00000 0 2860272.210 -16388339.507 -19344737.358 10 0 60475 900.00000 0 4319799.115 -18124525.072 -17429573.010 10 0 60475 1800.00000 0 5492394.984 -19759422.413 -15176098.353 10 0 60475 2700.00000 0 6377723.961 -21230500.487 -12628014.304 10 0 60475 3600.00000 0 6987798.561 -22478463.232 -9834751.231 10 0 60475 4500.00000 0 7346212.653 -23449723.065 -6850513.954 10 0 60475 5400.00000 0 7486888.525 -24098656.415 -3733232.442 10 0 60475 6300.00000 0 7452391.405 -24389546.263 -543438.291 10 0 60475 7200.00000 0 7291883.124 -24298129.553 2656911.143 10 0 60475 8100.00000 0 7058801.972 -23812683.753 5805637.933 10 0 60475 9000.00000 0 6808367.434 -22934606.100 8841554.305 10 0 60475 9900.00000 0 6595016.038 -21678460.422 11705654.852 10 0 60475 10800.00000 0 6469877.518 -20071488.800 14342266.588 10 0 60475 11700.00000 0 6478398.765 -18152607.915 16700134.070 10 0 60475 12600.00000 0 6658216.844 -15970931.579 18733418.149 10 0 60475 13500.00000 0 7037371.679 -13583880.871 20402588.774 10 0 60475 14400.00000 0 7632934.673 -11054960.466 21675194.499 10 0 60475 15300.00000 0 8450111.904 -8451293.697 22526493.813 10 0 60475 16200.00000 0 9481860.465 -5841018.815 22939936.219 10 0 60475 17100.00000 0 10709034.927 -3290654.502 22907483.915 10 0 60475 18000.00000 0 12101058.586 -862543.952 22429767.989 10 0 60475 18900.00000 0 13617092.057 1387516.703 21516076.174 10 0 60475 19800.00000 0 15207650.908 3412367.559 20184172.391 10 0 60475 20700.00000 0 16816605.025 5175205.489 18459951.470 10 0 60475 21600.00000 0 18383476.318 6650865.321 16376935.598 10 0 60475 22500.00000 0 19845938.656 7826609.269 13975622.033 10 0 60475 23400.00000 0 21142415.228 8702392.822 11302694.638 10 0 60475 24300.00000 0 22214664.224 9290597.313 8410114.473 10 0 60475 25200.00000 0 23010244.065 9615241.756 5354107.146 10 0 60475 26100.00000 0 23484754.264 9710708.552 2194066.859 10 0 60475 27000.00000 0 23603757.426 9620038.090 -1008601.200 10 0 60475 27900.00000 0 23344301.238 9392865.518 -4191677.200 10 0 60475 28800.00000 0 22695976.196 9083087.947 -7293337.944 10 0 60475 29700.00000 0 21661464.409 8746361.696 -10253359.101 10 0 60475 30600.00000 0 20256556.294 8437536.133 -13014284.709 10 0 60475 31500.00000 0 18509634.337 8208133.162 -15522541.028 10 0 60475 32400.00000 0 16460645.486 8103979.201 -17729473.197 10 0 60475 33300.00000 0 14159604.987 8163089.818 -19592284.883 10 0 60475 34200.00000 0 11664693.946 8413896.324 -21074863.174 10 0 60475 35100.00000 0 9040029.561 8873889.083 -22148473.376 10 0 60475 36000.00000 0 6353200.304 9548734.688 -22792311.008 10 0 60475 36900.00000 0 3672667.863 10431904.324 -22993900.960 10 0 60475 37800.00000 0 1065142.848 11504829.249 -22749336.666 10 0 60475 38700.00000 0 -1406957.821 12737577.450 -22063355.052 10 0 60475 39600.00000 0 -3687867.384 14090023.781 -20949245.891 10 0 60475 40500.00000 0 -5730542.912 15513465.458 -19428597.189 10 0 60475 41400.00000 0 -7498371.143 16952616.105 -17530881.087 10 0 60475 42300.00000 0 -8966436.612 18347895.691 -15292887.725 10 0 60475 43200.00000 0 -10122300.200 19637921.114 -12758017.311 10 0 60475 44100.00000 0 -10966256.557 20762093.538 -9975443.373 10 0 60475 45000.00000 0 -11511060.419 21663174.128 -6999162.806 10 0 60475 45900.00000 0 -11781134.032 22289740.009 -3886950.653 10 0 60475 46800.00000 0 -11811289.685 22598416.875 -699239.669 10 0 60475 47700.00000 0 -11645021.785 22555793.790 2502053.609 10 0 60475 48600.00000 0 -11332441.095 22139938.830 5654733.226 10 0 60475 49500.00000 0 -10927939.045 21341450.888 8697534.886 10 0 60475 50400.00000 0 -10487681.401 20164002.392 11571319.658 10 0 60475 51300.00000 0 -10067037.942 18624349.175 14220226.647 10 0 60475 52200.00000 0 -9718057.440 16751806.093 16592761.786 10 0 60475 53100.00000 0 -9487095.283 14587209.550 18642801.238 10 0 60475 54000.00000 0 -9412694.580 12181409.631 20330489.737 10 0 60475 54900.00000 0 -9523810.757 9593354.203 21623016.408 10 0 60475 55800.00000 0 -9838455.064 6887844.424 22495253.063 10 0 60475 56700.00000 0 -10362814.687 4133054.709 22930242.758 10 0 60475 57600.00000 0 -11090887.037 1397919.929 22919529.335 10 0 60475 58500.00000 0 -12004644.090 -1250501.932 22463321.706 10 0 60475 59400.00000 0 -13074720.369 -3749582.530 21570489.768 10 0 60475 60300.00000 0 -14261596.128 -6043485.802 20258392.045 10 0 60475 61200.00000 0 -15517226.397 -8085242.875 18552538.292 10 0 60475 62100.00000 0 -16787047.761 -9838453.703 16486093.426 10 0 60475 63000.00000 0 -18012278.741 -11278545.461 14099232.244 10 0 60475 63900.00000 0 -19132417.079 -12393536.213 11438357.267 10 0 60475 64800.00000 0 -20087828.829 -13184273.134 8555194.873 10 0 60475 65700.00000 0 -20822320.058 -13664136.626 5505787.270 10 0 60475 66600.00000 0 -21285582.552 -13858224.093 2349400.153 10 0 60475 67500.00000 0 -21435410.121 -13802049.097 -852632.378 10 0 60475 68400.00000 0 -21239591.730 -13539812.064 -4038102.800 10 0 60475 69300.00000 0 -20677401.293 -13122316.671 -7145141.231 10 0 60475 70200.00000 0 -19740621.035 -12604621.002 -10113418.637 10 0 60475 71100.00000 0 -18434055.026 -12043523.505 -12885318.441 10 0 60475 72000.00000 0 -16775510.973 -11494990.593 -15407053.569 10 0 60475 72900.00000 0 -14795250.744 -11011634.885 -17629707.311 10 0 60475 73800.00000 0 -12534932.232 -10640350.644 -19510178.090 10 0 60475 74700.00000 0 -10046086.391 -10420206.098 -21012010.289 10 0 60475 75600.00000 0 -7388192.446 -10380681.235 -22106095.692 10 0 60475 76500.00000 0 -4626430.744 -10540325.053 -22771232.689 10 0 60475 77400.00000 0 -1829205.901 -10905888.532 -22994533.087 10 0 60475 78300.00000 0 934457.838 -11471969.709 -22771669.257 10 0 60475 79200.00000 0 3597542.003 -12221185.867 -22106957.196 10 0 60475 80100.00000 0 6097572.247 -13124865.946 -21013274.006 10 0 60475 81000.00000 0 8378965.469 -14144234.596 -19511811.250 10 0 60475 81900.00000 0 10395089.375 -15232038.855 -17631668.520 10 0 60475 82800.00000 0 12109949.902 -16334549.826 -15409294.531 10 0 60475 83700.00000 0 13499437.209 -17393855.990 -12887785.812 10 0 60475 84600.00000 0 14552079.166 -18350352.291 -10116055.885 10 0 60475 85500.00000 0 15269271.557 -19145320.669 -7147890.401 10 0 60476 0.00000 0 15664976.065 -19723493.447 -4040906.368 10 0 60476 900.00000 0 15764899.477 -20035491.708 -855433.711 10 0 60476 1800.00000 0 15605188.770 -20040034.654 2346654.927 10 0 60476 2700.00000 0 15230698.297 -19705827.185 5503148.749 10 0 60476 3600.00000 0 14692902.157 -19013044.329 8552709.867 10 0 60476 4500.00000 0 14047540.725 -17954349.299 11436068.428 10 0 60476 5400.00000 0 13352101.250 -16535401.110 14097177.824 10 0 60476 6300.00000 0 12663239.510 -14774829.240 16484307.122 10 0 60476 7200.00000 0 12034251.938 -12703675.316 18551049.075 10 0 60476 8100.00000 0 11512705.387 -10364324.180 20257224.003 10 0 60476 9000.00000 0 11138324.927 -7808968.095 21569661.929 10 0 60476 9900.00000 0 10941229.047 -5097667.461 22462847.843 10 0 60476 10800.00000 0 10940586.869 -2296088.148 22919417.786 10 0 60476 11700.00000 0 11143754.119 526990.998 22930496.277 10 0 60476 12600.00000 0 11545924.387 3302297.347 22495868.731 10 0 60476 13500.00000 0 12130310.510 5962702.086 21623985.607 10 0 60476 14400.00000 0 12868848.571 8445767.178 20331798.194 10 0 60476 15300.00000 0 13723395.032 10696096.400 18644429.140 10 0 60476 16200.00000 0 14647366.706 12667393.311 16594683.939 10 0 60476 17100.00000 0 15587754.558 14324141.251 14222412.661 10 0 60476 18000.00000 0 16487426.463 15642836.137 11573734.153 10 0 60476 18900.00000 0 17287621.716 16612721.578 8700137.721 10 0 60476 19800.00000 0 17930531.884 17235996.661 5657479.751 10 0 60476 20700.00000 0 18361858.746 17527488.900 2504895.007 10 0 60476 21600.00000 0 18533240.974 17513807.378 -696355.903 10 0 60476 22500.00000 0 18404446.674 17232013.008 -3884080.069 10 0 60476 23400.00000 0 17945238.786 16727863.134 -6996363.100 10 0 60476 24300.00000 0 17136834.194 16053705.652 -9972773.240 10 0 60476 25200.00000 0 15972894.580 15266112.373 -12755535.039 10 0 60476 26100.00000 0 14460006.849 14423352.211 -15290649.584 10 0 60476 27000.00000 0 12617632.463 13582811.207 -17528939.559 10 0 60476 27900.00000 0 10477527.248 12798468.327 -19426999.171 10 0 60476 28800.00000 0 8082655.362 12118533.287 -20948030.947 10 0 60476 29700.00000 0 5485642.106 11583345.571 -22062553.844 10 0 60476 30600.00000 0 2746829.213 11223622.560 -22748969.686 10 0 60476 31500.00000 0 -67987.329 11059129.946 -22993977.631 10 0 60476 32400.00000 0 -2890043.978 11097829.844 -22792829.236 10 0 60476 33300.00000 0 -5650218.757 11335542.039 -22149419.587 10 0 60476 34200.00000 0 -8281655.660 11756132.469 -21076212.846 10 0 60476 35100.00000 0 -10722296.620 12332221.072 -19594003.537 10 0 60476 36000.00000 0 -12917217.050 13026379.535 -17731517.768 10 0 60476 36900.00000 0 -14820668.909 13792768.994 -15524861.551 10 0 60476 37800.00000 0 -16397747.182 14579149.273 -13016826.183 10 0 60476 38700.00000 0 -17625611.116 15329175.544 -10256063.380 10 0 60476 39600.00000 0 -18494209.833 15984885.976 -7296145.568 10 0 60476 40500.00000 0 -19006482.552 16489275.631 -4194529.026 10 0 60476 41400.00000 0 -19178025.512 16788847.913 -1011439.737 10 0 60476 42300.00000 0 -19036240.045 16836035.477 2191296.418 10 0 60476 43200.00000 0 -18618998.119 16591387.761 5351456.215 10 0 60476 44100.00000 0 -17972882.009 16025431.891 8407630.661 10 0 60476 45000.00000 0 -17151072.839 15120127.406 11300421.519 10 0 60476 45900.00000 0 -16210977.546 13869852.238 13973599.045 10 0 60476 46800.00000 0 -15211694.851 12281877.200 16375197.979 10 0 60476 47700.00000 0 -14211427.613 10376307.739 18458530.140 10 0 60476 48600.00000 0 -13264951.005 8185494.164 20183093.753 10 0 60476 49500.00000 0 -12421243.505 5752933.874 21515361.825 10 0 60476 50400.00000 0 -11721380.616 3131710.430 22429434.346 10 0 60476 51300.00000 0 -11196780.048 382533.642 22907541.799 10 0 60476 52200.00000 0 -10867872.107 -2428538.510 22940390.447 10 0 60476 53100.00000 0 -10743251.105 -5232602.034 22527342.838 10 0 60476 54000.00000 0 -10819343.298 -7960529.788 21676430.153 10 0 60476 54900.00000 0 -11080605.078 -10545606.600 20404196.114 10 0 60476 55800.00000 0 -11500242.896 -12926067.666 18735375.447 10 0 60476 56700.00000 0 -12041424.344 -15047435.193 16702412.925 10 0 60476 57600.00000 0 -12658929.155 -16864556.618 14344832.145 10 0 60476 58500.00000 0 -13301170.231 -18343260.085 11708466.139 10 0 60476 59400.00000 0 -13912499.151 -19461558.837 8844564.662 10 0 60476 60300.00000 0 -14435698.417 -20210355.013 5808795.535 10 0 60476 61200.00000 0 -14814554.778 -20593614.353 2660159.639 10 0 60476 62100.00000 0 -14996404.369 -20628005.559 -540158.996 10 0 60476 63000.00000 0 -14934541.595 -20342020.595 -3729985.272 10 0 60476 63900.00000 0 -14590389.431 -19774614.088 -6847363.541 10 0 60476 64800.00000 0 -13935338.906 -18973420.202 -9831762.592 10 0 60476 65700.00000 0 -12952179.622 -17992623.055 -12625251.348 10 0 60476 66600.00000 0 -11636060.440 -16890571.176 -15173622.184 10 0 60476 67500.00000 0 -9994939.351 -15727236.986 -17427440.128 10 0 60476 68400.00000 0 -8049502.974 -14561628.499 -19342997.815 10 0 60476 69300.00000 0 -5832558.372 -13449262.080 -20883158.169 10 0 60476 70200.00000 0 -3387921.834 -12439802.186 -22018069.090 10 0 60476 71100.00000 0 -768850.026 -11574966.683 -22725737.062 10 0 60476 72000.00000 0 1963922.079 -10886785.025 -22992449.234 10 0 60476 72900.00000 0 4744456.046 -10396281.625 -22813036.426 10 0 60476 73800.00000 0 7504104.297 -10112638.977 -22190972.359 10 0 60476 74700.00000 0 10174121.472 -10032875.076 -21138307.308 10 0 60476 75600.00000 0 12688285.701 -10142048.276 -19675437.369 10 0 60476 76500.00000 0 14985421.990 -10413980.782 -17830713.361 10 0 60476 77400.00000 0 17011723.855 -10812470.386 -15639896.400 10 0 60476 78300.00000 0 18722777.440 -11292939.587 -13145469.952 10 0 60476 79200.00000 0 20085204.469 -11804452.865 -10395820.968 10 0 60476 80100.00000 0 21077855.968 -12292017.233 -7444305.335 10 0 60476 81000.00000 0 21692507.257 -12699069.093 -4348215.296 10 0 60476 81900.00000 0 21934025.450 -12970042.262 -1167668.553 10 0 60476 82800.00000 0 21820002.689 -13052908.356 2035559.353 10 0 60476 83700.00000 0 21379870.850 -12901581.572 5199236.542 10 0 60476 84600.00000 0 20653535.256 -12478085.452 8261886.487 10 0 60476 85500.00000 0 19689585.296 -11754389.077 11163985.802 10 0 60477 0.00000 0 18543157.797 -10713834.101 13849124.180 10 0 60477 900.00000 0 17273542.927 -9352090.578 16265104.833 10 0 60477 1800.00000 0 15941635.396 -7677601.421 18364960.169 10 0 60477 2700.00000 0 14607336.516 -5711493.638 20107867.553 10 0 60477 3600.00000 0 13327018.143 -3486960.035 21459943.700 10 0 60477 4500.00000 0 12151154.626 -1048135.523 22394903.785 10 0 60477 5400.00000 0 11122222.325 1551486.047 22894572.448 10 0 60477 6300.00000 0 10272954.703 4251029.578 22949236.948 10 0 60477 7200.00000 0 9625025.964 6984529.389 22557835.795 10 0 60477 8100.00000 0 9188218.053 9683438.291 21727979.331 10 0 60477 9000.00000 0 8960105.512 12279251.406 20475801.824 10 0 60477 9900.00000 0 8926270.890 14706136.093 18825647.902 10 0 60477 10800.00000 0 9061041.053 16903459.071 16809599.212 10 0 60477 11700.00000 0 9328712.839 18818105.970 14466850.308 10 0 60477 12600.00000 0 9685215.804 20406497.066 11842945.699 10 0 60477 13500.00000 0 10080141.360 21636215.573 8988892.804 10 0 60477 14400.00000 0 10459052.018 22487181.030 5960168.039 10 0 60477 15300.00000 0 10765972.544 22952319.318 2815635.571 10 0 60477 16200.00000 0 10945957.097 23037702.058 -383599.926 10 0 60477 17100.00000 0 10947623.142 22762150.416 -3575383.816 10 0 60477 18000.00000 0 10725544.344 22156320.936 -6697721.653 10 0 60477 18900.00000 0 10242400.685 21261312.811 -9689984.982 10 0 60477 19800.00000 0 9470794.368 20126856.077 -12494088.999 10 0 60477 20700.00000 0 8394654.285 18809157.711 -15055618.965 10 0 60477 21600.00000 0 7010169.261 17368496.796 -17324883.523 10 0 60477 22500.00000 0 5326210.162 15866670.093 -19257874.741 10 0 60477 23400.00000 0 3364222.404 14364395.360 -20817116.699 10 0 60477 24300.00000 0 1157592.546 12918781.084 -21972386.796 10 0 60477 25200.00000 0 -1249485.529 11580968.202 -22701296.541 10 0 60477 26100.00000 0 -3803598.591 10394041.851 -22989721.254 10 0 60477 27000.00000 0 -6444091.210 9391299.773 -22832070.979 10 0 60477 27900.00000 0 -9105351.100 8594948.894 -22231397.761 10 0 60477 28800.00000 0 -11719308.867 8015283.824 -21199337.377 10 0 60477 29700.00000 0 -14218049.549 7650380.903 -19755886.544 10 0 60477 30600.00000 0 -16536428.548 7486320.004 -17929019.508 10 0 60477 31500.00000 0 -18614584.156 7497924.368 -15754150.900 10 0 60477 32400.00000 0 -20400242.888 7649987.128 -13273454.521 10 0 60477 33300.00000 0 -21850722.180 7898932.762 -10535050.539 10 0 60477 34200.00000 0 -22934547.250 8194843.412 -7592076.176 10 0 60477 35100.00000 0 -23632614.772 8483764.488 -4501657.435 10 0 60477 36000.00000 0 -23938854.798 8710191.994 -1323801.498 10 0 60477 36900.00000 0 -23860363.205 8819636.113 1879768.708 10 0 60477 37800.00000 0 -23416999.198 8761152.119 5046814.960 10 0 60477 38700.00000 0 -22640464.854 8489730.826 8115795.541 10 0 60477 39600.00000 0 -21572905.590 7968446.588 11027064.303 10 0 60477 40500.00000 0 -20265090.632 7170270.968 13724033.214 10 0 60477 41400.00000 0 -18774250.281 6079474.295 16154275.329 10 0 60477 42300.00000 0 -17161661.202 4692554.704 18270546.380 10 0 60477 43200.00000 0 -15490081.472 3018654.183 20031704.926 10 0 60477 44100.00000 0 -13821143.236 1079442.781 21403513.180 10 0 60477 45000.00000 0 -12212812.503 -1091525.512 22359303.001 10 0 60477 45900.00000 0 -10717022.455 -3449959.511 22880494.317 10 0 60477 46800.00000 0 -9377579.249 -5942433.478 22956956.141 10 0 60477 47700.00000 0 -8228427.638 -8508379.810 22587203.315 10 0 60477 48600.00000 0 -7292348.510 -11082389.614 21778425.317 10 0 60477 49500.00000 0 -6580142.250 -13596726.121 20546346.553 10 0 60477 50400.00000 0 -6090331.394 -15983946.834 18914920.761 10 0 60477 51300.00000 0 -5809394.209 -18179525.695 16915865.314 10 0 60477 52200.00000 0 -5712518.506 -20124366.388 14588044.221 10 0 60477 53100.00000 0 -5764843.057 -21767102.235 11976711.661 10 0 60477 54000.00000 0 -5923133.446 -23066086.945 9132630.641 10 0 60477 54900.00000 0 -6137820.768 -23990993.361 6111083.882 10 0 60477 55800.00000 0 -6355316.225 -24523953.615 2970796.368 10 0 60477 56700.00000 0 -6520502.956 -24660193.435 -227209.191 10 0 60477 57600.00000 0 -6579298.943 -24408134.577 -3420801.345 10 0 60477 58500.00000 0 -6481181.790 -23788961.777 -6547949.673 10 0 60477 59400.00000 0 -6181567.936 -22835673.170 -9547931.370 10 0 60477 60300.00000 0 -5643945.037 -21591654.829 -12362510.854 10 0 60477 61200.00000 0 -4841666.875 -20108840.006 -14937069.207 10 0 60477 62100.00000 0 -3759334.463 -18445530.916 -17221661.541 10 0 60477 63000.00000 0 -2393704.579 -16663974.810 -19171982.032 10 0 60477 63900.00000 0 -754086.843 -14827796.041 -20750218.314 10 0 60477 64800.00000 0 1137788.085 -12999391.493 -21925779.322 10 0 60477 65700.00000 0 3248424.584 -11237397.852 -22675883.194 10 0 60477 66600.00000 0 5533716.040 -9594335.916 -22985994.556 10 0 60477 67500.00000 0 7940549.669 -8114529.460 -22850103.324 10 0 60477 68400.00000 0 10408796.630 -6832384.532 -22270840.049 10 0 60477 69300.00000 0 12873605.788 -5771100.045 -21259425.742 10 0 60477 70200.00000 0 15267906.949 -4941862.518 -19835457.029 10 0 60477 71100.00000 0 17525020.595 -4343557.726 -18026530.443 10 0 60477 72000.00000 0 19581266.424 -3963010.590 -15867712.539 10 0 60477 72900.00000 0 21378462.849 -3775742.608 -13400865.407 10 0 60477 73800.00000 0 22866213.795 -3747214.559 -10673839.904 10 0 60477 74700.00000 0 24003887.577 -3834501.789 -7739551.616 10 0 60477 75600.00000 0 24762205.297 -3988331.197 -4654956.941 10 0 60477 76500.00000 0 25124372.166 -4155393.568 -1479948.865 10 0 60477 77400.00000 0 25086704.203 -4280833.178 1723806.145 10 0 60477 78300.00000 0 24658723.819 -4310808.838 4894067.409 10 0 60477 79200.00000 0 23862720.098 -4195017.381 7969231.788 10 0 60477 80100.00000 0 22732792.164 -3889071.963 10889533.889 10 0 60477 81000.00000 0 21313415.782 -3356633.658 13598210.898 10 0 60477 81900.00000 0 19657593.483 -2571205.110 16042608.943 10 0 60477 82800.00000 0 17824665.985 -1517509.367 18175209.095 10 0 60477 83700.00000 0 15877876.886 -192394.477 19954552.894 10 0 60477 84600.00000 0 13881792.802 1394775.546 21346049.352 10 0 60477 85500.00000 0 11899687.042 3222261.091 22322647.816 99